When you browse on this site, cookies collect data to enhance your experience and personalize the content and advertising you see.
Visit our Privacy Policy to learn more. By continuing to use the site, you agree to this use of cookies and data.
  • Em Portugal
  • Lista de países
  • Para 7 dias
  • Temperatura da água
  • Mapas de satélite
  • Mapa do tempo
  • Widgets de tempo
  • user-avatar
    Iniciar Sessão

    Previsão horária em Kabwe

    Hoje, 27 Maio, Segunda-feira

    Tempo Temperatura Precipitação Vento Pressão Humidade
    00:00 +15°C° 0 mm 2 m/s 663 mmHg 83%
    01:00 +15°C° 0 mm 2 m/s 663 mmHg 85%
    02:00 +14°C° 0 mm 2 m/s 662 mmHg 88%
    03:00 +14°C° 0 mm 2 m/s 662 mmHg 90%
    04:00 +14°C° 0 mm 2 m/s 662 mmHg 91%
    05:00 +13°C° 0 mm 2 m/s 662 mmHg 93%
    06:00 +13°C° 0 mm 3 m/s 663 mmHg 87%
    07:00 +16°C° 0 mm 3 m/s 663 mmHg 80%
    08:00 +17°C° 0 mm 4 m/s 664 mmHg 74%
    09:00 +19°C° 0 mm 4 m/s 664 mmHg 66%
    10:00 +21°C° 0 mm 4 m/s 664 mmHg 59%
    11:00 +23°C° 0 mm 4 m/s 665 mmHg 51%
    12:00 +25°C° 0 mm 3 m/s 664 mmHg 47%
    13:00 +26°C° 0 mm 3 m/s 664 mmHg 43%
    14:00 +27°C° 0 mm 2 m/s 663 mmHg 40%
    15:00 +26°C° 0 mm 2 m/s 663 mmHg 43%
    16:00 +25°C° 0 mm 2 m/s 663 mmHg 47%
    17:00 +23°C° 0 mm 2 m/s 662 mmHg 51%
    18:00 +23°C° 0 mm 2 m/s 662 mmHg 52%
    19:00 +21°C° 0 mm 2 m/s 663 mmHg 52%
    20:00 +20°C° 0 mm 3 m/s 663 mmHg 53%
    21:00 +19°C° 0 mm 2 m/s 663 mmHg 56%
    22:00 +19°C° 0 mm 2 m/s 663 mmHg 59%
    23:00 +18°C° 0 mm 2 m/s 663 mmHg 61%

    Amanhã, 28 Maio, Terça-feira

    Tempo Temperatura Precipitação Vento Pressão Humidade
    00:00 +17°C° 0 mm 2 m/s 663 mmHg 64%
    01:00 +16°C° 0 mm 2 m/s 663 mmHg 67%
    02:00 +16°C° 0 mm 2 m/s 662 mmHg 70%
    03:00 +15°C° 0 mm 2 m/s 662 mmHg 72%
    04:00 +15°C° 0 mm 2 m/s 662 mmHg 74%
    05:00 +14°C° 0 mm 2 m/s 662 mmHg 76%
    06:00 +15°C° 0 mm 2 m/s 663 mmHg 72%
    07:00 +16°C° 0 mm 3 m/s 663 mmHg 68%
    08:00 +17°C° 0 mm 4 m/s 664 mmHg 64%
    09:00 +19°C° 0 mm 4 m/s 664 mmHg 58%
    10:00 +21°C° 0 mm 3 m/s 665 mmHg 52%
    11:00 +24°C° 0 mm 3 m/s 665 mmHg 46%
    12:00 +25°C° 0 mm 3 m/s 665 mmHg 42%
    13:00 +26°C° 0 mm 2 m/s 664 mmHg 38%
    14:00 +27°C° 0 mm 2 m/s 664 mmHg 34%
    15:00 +26°C° 0 mm 2 m/s 663 mmHg 37%
    16:00 +25°C° 0 mm 2 m/s 663 mmHg 41%
    17:00 +24°C° 0 mm 1 m/s 662 mmHg 44%
    18:00 +21°C° 0 mm 2 m/s 662 mmHg 48%
    19:00 +20°C° 0 mm 2 m/s 662 mmHg 52%
    20:00 +18°C° 0 mm 2 m/s 662 mmHg 56%
    21:00 +17°C° 0 mm 2 m/s 663 mmHg 57%
    22:00 +17°C° 0 mm 2 m/s 663 mmHg 59%
    23:00 +16°C° 0 mm 2 m/s 663 mmHg 60%

    Depois de amanhã, 29 Maio, Quarta-feira

    Tempo Temperatura Precipitação Vento Pressão Humidade
    00:00 +16°C° 0 mm 2 m/s 663 mmHg 63%
    01:00 +15°C° 0 mm 2 m/s 662 mmHg 65%
    02:00 +15°C° 0 mm 2 m/s 662 mmHg 68%
    03:00 +14°C° 0 mm 2 m/s 662 mmHg 70%
    04:00 +14°C° 0 mm 2 m/s 662 mmHg 72%
    05:00 +14°C° 0 mm 2 m/s 662 mmHg 74%
    06:00 +15°C° 0 mm 2 m/s 663 mmHg 70%
    07:00 +16°C° 0 mm 2 m/s 663 mmHg 65%
    08:00 +17°C° 0 mm 3 m/s 664 mmHg 60%
    09:00 +19°C° 0 mm 3 m/s 665 mmHg 54%
    10:00 +22°C° 0 mm 3 m/s 665 mmHg 48%
    11:00 +25°C° 0 mm 3 m/s 666 mmHg 42%
    12:00 +26°C° 0 mm 3 m/s 665 mmHg 39%
    13:00 +26°C° 0 mm 2 m/s 664 mmHg 35%
    14:00 +27°C° 0 mm 2 m/s 664 mmHg 32%
    15:00 +26°C° 0 mm 2 m/s 663 mmHg 35%
    16:00 +25°C° 0 mm 2 m/s 663 mmHg 39%
    17:00 +24°C° 0 mm 2 m/s 662 mmHg 42%
    18:00 +21°C° 0 mm 2 m/s 663 mmHg 46%
    19:00 +20°C° 0 mm 2 m/s 663 mmHg 49%
    20:00 +18°C° 0 mm 2 m/s 663 mmHg 52%
    21:00 +17°C° 0 mm 2 m/s 663 mmHg 55%
    22:00 +17°C° 0 mm 2 m/s 663 mmHg 57%
    23:00 +16°C° 0 mm 2 m/s 663 mmHg 60%

    30 Maio, Quinta-feira

    Tempo Temperatura Precipitação Vento Pressão Humidade
    00:00 +16°C° 0 mm 2 m/s 663 mmHg 62%
    01:00 +15°C° 0 mm 2 m/s 663 mmHg 65%
    02:00 +15°C° 0 mm 1 m/s 662 mmHg 67%
    03:00 +14°C° 0 mm 1 m/s 662 mmHg 68%
    04:00 +14°C° 0 mm 1 m/s 662 mmHg 69%
    05:00 +14°C° 0 mm 2 m/s 662 mmHg 70%
    06:00 +15°C° 0 mm 2 m/s 663 mmHg 65%
    07:00 +16°C° 0 mm 2 m/s 664 mmHg 60%
    08:00 +17°C° 0 mm 3 m/s 664 mmHg 56%
    09:00 +19°C° 0 mm 3 m/s 665 mmHg 50%
    10:00 +21°C° 0 mm 3 m/s 665 mmHg 44%
    11:00 +23°C° 0 mm 4 m/s 665 mmHg 39%
    12:00 +25°C° 0 mm 3 m/s 665 mmHg 37%
    13:00 +26°C° 0 mm 3 m/s 664 mmHg 35%
    14:00 +27°C° 0 mm 3 m/s 663 mmHg 32%
    15:00 +26°C° 0 mm 2 m/s 663 mmHg 36%
    16:00 +25°C° 0 mm 2 m/s 663 mmHg 39%
    17:00 +24°C° 0 mm 2 m/s 662 mmHg 42%
    18:00 +21°C° 0 mm 2 m/s 662 mmHg 47%
    19:00 +19°C° 0 mm 2 m/s 663 mmHg 51%
    20:00 +17°C° 0 mm 2 m/s 663 mmHg 56%
    21:00 +17°C° 0 mm 2 m/s 663 mmHg 59%
    22:00 +16°C° 0 mm 2 m/s 663 mmHg 63%
    23:00 +16°C° 0 mm 2 m/s 663 mmHg 67%

    31 Maio, Sexta-feira

    Tempo Temperatura Precipitação Vento Pressão Humidade
    00:00 +15°C° 0 mm 2 m/s 662 mmHg 70%
    01:00 +15°C° 0 mm 2 m/s 662 mmHg 73%
    02:00 +14°C° 0 mm 1 m/s 661 mmHg 76%
    03:00 +14°C° 0 mm 1 m/s 662 mmHg 77%
    04:00 +13°C° 0 mm 1 m/s 662 mmHg 78%
    05:00 +13°C° 0 mm 1 m/s 662 mmHg 79%
    06:00 +14°C° 0 mm 2 m/s 662 mmHg 74%
    07:00 +16°C° 0 mm 3 m/s 663 mmHg 69%
    08:00 +17°C° 0 mm 3 m/s 664 mmHg 64%
    09:00 +19°C° 0 mm 3 m/s 664 mmHg 57%
    10:00 +21°C° 0 mm 3 m/s 664 mmHg 50%
    11:00 +24°C° 0 mm 3 m/s 665 mmHg 43%
    12:00 +25°C° 0 mm 3 m/s 664 mmHg 39%
    13:00 +26°C° 0 mm 2 m/s 663 mmHg 35%
    14:00 +27°C° 0 mm 2 m/s 663 mmHg 32%
    15:00 +26°C° 0 mm 2 m/s 662 mmHg 35%
    16:00 +25°C° 0 mm 2 m/s 662 mmHg 38%
    17:00 +24°C° 0 mm 2 m/s 662 mmHg 42%
    18:00 +21°C° 0 mm 2 m/s 662 mmHg 46%
    19:00 +19°C° 0 mm 2 m/s 662 mmHg 50%
    20:00 +17°C° 0 mm 2 m/s 662 mmHg 54%
    21:00 +16°C° 0 mm 2 m/s 662 mmHg 55%
    22:00 +16°C° 0 mm 2 m/s 662 mmHg 57%
    23:00 +15°C° 0 mm 1 m/s 662 mmHg 58%

    1 Junho, Sábado

    Tempo Temperatura Precipitação Vento Pressão Humidade
    00:00 +15°C° 0 mm 1 m/s 661 mmHg 60%
    01:00 +14°C° 0 mm 1 m/s 661 mmHg 61%
    02:00 +14°C° 0 mm 1 m/s 661 mmHg 62%
    03:00 +14°C° 0 mm 1 m/s 661 mmHg 63%
    04:00 +13°C° 0 mm 1 m/s 661 mmHg 65%
    05:00 +13°C° 0 mm 1 m/s 661 mmHg 66%
    06:00 +14°C° 0 mm 1 m/s 662 mmHg 63%
    07:00 +15°C° 0 mm 1 m/s 663 mmHg 60%
    08:00 +18°C° 0 mm 1 m/s 664 mmHg 57%
    09:00 +19°C° 0 mm 2 m/s 664 mmHg 49%
    10:00 +21°C° 0 mm 2 m/s 664 mmHg 42%
    11:00 +25°C° 0 mm 3 m/s 665 mmHg 34%
    12:00 +26°C° 0 mm 3 m/s 664 mmHg 32%
    13:00 +26°C° 0 mm 3 m/s 664 mmHg 31%
    14:00 +27°C° 0 mm 3 m/s 663 mmHg 29%
    15:00 +26°C° 0 mm 2 m/s 663 mmHg 32%
    16:00 +25°C° 0 mm 2 m/s 662 mmHg 35%
    17:00 +24°C° 0 mm 2 m/s 662 mmHg 39%
    18:00 +21°C° 0 mm 2 m/s 662 mmHg 43%
    19:00 +19°C° 0 mm 2 m/s 662 mmHg 47%
    20:00 +17°C° 0 mm 2 m/s 663 mmHg 51%
    21:00 +17°C° 0 mm 2 m/s 663 mmHg 53%
    22:00 +16°C° 0 mm 2 m/s 662 mmHg 56%
    23:00 +15°C° 0 mm 1 m/s 662 mmHg 59%
    Mostrar mais